Zurück zum Katalog

SCOUT B R/B

AktivPO
NORAD 3341·ROCKET BODY·🇺🇸 United States

Gestartet Aug 8, 1968 von Vandenberg Space Force Base

Loading…

Nächste Überflüge (nächste 24 Stunden)

TLE

AktuellSource: Space-Track

Epoche: Sep 14, 2026, 04:39 UTC

1 03341U 68066C   26257.19387261  .00000037  00000-0  28739-4 0  9999
2 03341  80.6677 343.6921 1115085  22.3375 342.2564 12.26196726574428

Verfolge SCOUT B R/B in Echtzeit mit AllMySat

Download on the App Store